{"data":{"norad_id":64429,"epoch":"2026-09-20T14:37:36.227712Z","epoch_age_seconds":124689,"freshness":"FRESH","line1":"1 64429U 25129T   26263.60944708  .00007112  00000+0  24521-3 0  9998","line2":"2 64429  70.0001 300.6329 0003206 271.1325  88.9483 15.30420967 70543","mean_motion":15.30420967,"eccentricity":0.0003206,"inclination_deg":70.0001,"raan_deg":300.6329,"arg_perigee_deg":271.1325,"mean_anomaly_deg":88.9483,"bstar":0.00024521,"rev_number":7054,"period_min":94.091758480201,"perigee_km":472.35840799353,"apogee_km":476.75235434834,"semimajor_km":6852.6923811709,"source":"CELESTRAK","updated_at":"2026-09-21T09:00:35.349417Z"}}